TimeCST,TemperatureF,Dew PointF,Humidity,Sea Level PressureIn,VisibilityMPH,Wind Direction,Wind SpeedMPH,Gust SpeedMPH,PrecipitationIn,Events,Conditions,WindDirDegrees,DateUTC
12:53 AM,10.0,6.1,84,30.34,10.0,Calm,Calm,-,N/A,,Overcast,0,2013-02-08 06:53:00
1:53 AM,7.0,3.9,87,30.34,9.0,Calm,Calm,-,N/A,,Overcast,0,2013-02-08 07:53:00
2:02 AM,8.6,3.2,79,30.27,9.0,Calm,Calm,-,N/A,,Overcast,0,2013-02-08 08:02:00
2:13 AM,6.8,3.2,85,30.27,10.0,Calm,Calm,-,N/A,,Overcast,0,2013-02-08 08:13:00
2:44 AM,3.2,-0.4,85,30.27,10.0,Calm,Calm,-,N/A,,Overcast,0,2013-02-08 08:44:00
2:53 AM,3.0,-0.9,84,30.35,9.0,Calm,Calm,-,N/A,,Overcast,0,2013-02-08 08:53:00
3:53 AM,6.1,3.0,87,30.35,7.0,Calm,Calm,-,0.00,,Overcast,0,2013-02-08 09:53:00
4:53 AM,9.0,5.0,84,30.36,10.0,Calm,Calm,-,0.00,,Overcast,0,2013-02-08 10:53:00
5:53 AM,9.0,5.0,84,30.38,10.0,Calm,Calm,-,N/A,,Overcast,0,2013-02-08 11:53:00
6:23 AM,6.8,1.4,79,30.31,10.0,Calm,Calm,-,N/A,,Partly Cloudy,0,2013-02-08 12:23:00
6:53 AM,1.9,-2.9,80,30.40,10.0,Calm,Calm,-,N/A,,Clear,0,2013-02-08 12:53:00
7:53 AM,1.0,-4.0,79,30.42,10.0,Calm,Calm,-,N/A,,Clear,0,2013-02-08 13:53:00
8:53 AM,3.9,3.0,96,30.43,10.0,Calm,Calm,-,N/A,,Clear,0,2013-02-08 14:53:00
9:53 AM,18.0,10.9,74,30.43,10.0,Calm,Calm,-,N/A,,Clear,0,2013-02-08 15:53:00
10:53 AM,19.9,10.9,68,30.43,10.0,NE,5.8,-,N/A,,Clear,40,2013-02-08 16:53:00
11:53 AM,21.9,10.9,63,30.43,10.0,Calm,Calm,-,N/A,,Scattered Clouds,0,2013-02-08 17:53:00
12:01 PM,21.2,10.4,63,30.35,10.0,East,8.1,-,N/A,,Mostly Cloudy,100,2013-02-08 18:01:00
12:16 PM,21.2,10.4,63,30.34,10.0,Calm,Calm,-,N/A,,Scattered Clouds,0,2013-02-08 18:16:00
12:53 PM,21.9,10.9,63,30.41,10.0,ESE,5.8,-,N/A,,Clear,120,2013-02-08 18:53:00
1:53 PM,25.0,10.9,55,30.40,10.0,Calm,Calm,-,N/A,,Clear,0,2013-02-08 19:53:00
2:53 PM,25.0,10.9,55,30.38,10.0,Calm,Calm,-,N/A,,Clear,0,2013-02-08 20:53:00
3:53 PM,25.0,10.9,55,30.36,10.0,Calm,Calm,-,N/A,,Clear,0,2013-02-08 21:53:00
4:53 PM,23.0,10.0,58,30.35,10.0,Calm,Calm,-,N/A,,Clear,0,2013-02-08 22:53:00
5:53 PM,18.0,10.0,71,30.35,10.0,Calm,Calm,-,N/A,,Clear,0,2013-02-08 23:53:00
6:53 PM,10.9,7.0,84,30.38,10.0,Calm,Calm,-,N/A,,Clear,0,2013-02-09 00:53:00
7:53 PM,8.1,3.0,80,30.37,10.0,Calm,Calm,-,N/A,,Clear,0,2013-02-09 01:53:00
8:53 PM,5.0,-0.9,76,30.36,10.0,Calm,Calm,-,N/A,,Clear,0,2013-02-09 02:53:00
9:53 PM,1.9,-2.0,83,30.35,10.0,Calm,Calm,-,N/A,,Clear,0,2013-02-09 03:53:00
10:53 PM,-0.0,-5.1,79,30.33,10.0,Calm,Calm,-,N/A,,Clear,0,2013-02-09 04:53:00
11:53 PM,-2.0,-6.0,83,30.34,10.0,Calm,Calm,-,N/A,,Clear,0,2013-02-09 05:53:00